Погода в Иньчуани

Китай     38°28′35″N   106°11′13″E
темп.,
°C
ветер,
м/с
пор.,
м/с
влажн.,
%
обл.,
%
осадки,
мм/ч
давл.,
гПа
погр.,
м
24 января, вс
вс2423:000ссв233080 0.0 101841
02:00−1с234081 0.0 101856
05:00−1ссв355551 0.0 1018104
08:00−2с336561 0.0 102071
11:00+1ссв125188 0.0 1022111
14:00+3сз114594 0.0 1019178
17:00+3зсз2242100 0.0 102254
20:00+1з2439100 0.3 1028204
25 января, пн
пн2523:000зсз3552100 0.3 1030636
02:00−2юз245998 0.3 1031290
05:00−3ююз025936 0.0 103284
08:00−3ююз225218 0.0 103278
11:00−1ююв22400 0.0 1032197
14:00+1юв11310 0.0 1028402
17:00+1вюв11320 0.0 102628
20:00−1ссв35440 0.0 1029132
26 января, вт
вт2623:00−3св354457 0.0 1031219
02:00−3юв124566 0.0 1032101
05:00−4в23449 0.0 1033116
08:00−6в34355 0.0 1034174
11:00−4в23310 0.0 1032380
14:00−1вюв00310 0.0 1028537
17:00−1в01300 0.0 1025334
20:00−2ссв12350 0.0 102626
27 января, ср
ср2723:00−3ююв11400 0.0 102721
02:00−4ю12420 0.0 102631
05:00−5в12460 0.0 102639
08:00−5ююв014729 0.0 102921
11:00−1зсз253328 0.0 1031562
14:00+1сз5182214 0.0 10312206
17:00−1сз418260 0.0 10322032
20:00−4зсз49260 0.0 10361172
28 января, чт
чт2823:00−5сз47230 0.0 1038906
02:00−7зсз46190 0.0 1039363
05:00−8ююз23200 0.0 1039272
08:00−9ююв23290 0.0 1039111
11:00−6ююв11180 0.0 1038222
14:00−2юв22100 0.0 1034378
17:00−2вюв23110 0.0 1032233
20:00−4вюв11160 0.0 103421